[[{"header":{"parameterUnit":"m.s-1","parameterCategory":1,"la1":30.2992,"la2":30.254,"lo1":-89.0895,"lo2":-89.0443,"dy":0.0025,"dx":0.0025,"nx":19,"ny":19,"refTime":"2026-05-24T03:00:00:Z","depth":0,"parameterNumber":2,"parameterNumberName":"U-component_of_WINDS"},"data":[0,0,0,-1.6914,-1.6915,-1.6955,-1.6955,-1.7011,-1.7011,0,0,0,0,0,0,0,0,0,0,0,-1.6905,-1.6906,-1.6914,-1.6915,-1.6955,-1.6955,-1.7011,-1.7011,0,0,0,0,0,0,0,0,0,0,0,-1.6905,-1.6905,-1.6906,-1.6915,-1.6955,-1.6955,-1.7011,-1.6979,0,0,0,0,0,0,0,0,0,0,-1.6939,-1.6934,-1.6905,-1.6906,-1.6915,-1.6955,-1.6955,-1.6977,-1.6981,-1.6994,0,-1.7008,0,-1.7011,-1.7015,-1.7016,0,0,0,-1.6912,-1.6931,-1.6939,-1.6906,-1.6916,-1.6955,-1.6936,-1.6979,-1.6983,-1.6999,-1.7009,-1.7011,-1.7012,-1.7016,-1.7016,-1.7106,-1.7106,0,0,-1.691,-1.6914,-1.6936,-1.6942,-1.6936,-1.6935,-1.6938,-1.6981,-1.6992,-1.7009,-1.7012,-1.7013,-1.7016,-1.7017,-1.7105,-1.7106,0,0,0,-1.6906,-1.6912,-1.6919,-1.694,-1.6947,-1.6936,-1.6939,-1.699,-1.6992,-1.7013,-1.7013,-1.7017,-1.7017,-1.7105,-1.7106,-1.7136,0,0,0,-1.6904,-1.691,-1.6918,-1.6921,-1.6946,-1.6969,-1.6947,-1.6989,-1.6994,-1.7013,-1.7017,-1.7018,-1.7104,-1.7105,-1.7134,-1.715,0,0,0,-1.6901,-1.6909,-1.6916,-1.6921,-1.6939,-1.6968,-1.6973,-1.699,-1.6994,-1.7016,-1.7018,-1.7104,-1.7105,-1.7132,-1.7147,-1.7175,0,0,0,-1.6899,-1.6942,-1.6917,-1.6965,-1.6938,-1.6987,-1.6972,-1.7008,-1.703,-1.7017,-1.7104,-1.7106,-1.7132,-1.7145,-1.7173,-1.72,-1.7211,0,0,-1.6955,-1.6949,-1.6977,-1.6955,-1.7009,-1.698,-1.7038,-1.7055,-1.7053,-1.7088,-1.709,-1.7135,-1.7147,-1.7175,-1.7273,-1.7282,0,0,0,-1.6996,-1.7016,-1.703,-1.7051,-1.7065,-1.7078,-1.7085,-1.7092,-1.7121,-1.7072,-1.7152,-1.7159,-1.7175,-1.7188,-1.7196,-1.721,-1.7111,-1.7111,-1.7111,-1.7081,-1.7077,-1.7123,-1.7124,-1.7145,-1.7152,-1.7168,-1.7178,-1.7167,-1.7186,-1.7197,-1.7257,-1.7272,-1.7278,-1.7292,-1.721,-1.721,-1.721,-1.721,-1.7163,-1.7191,-1.7177,-1.7216,-1.7212,-1.7244,-1.7253,-1.7244,-1.7274,-1.7248,-1.7263,-1.7236,-1.7288,-1.73,-1.7213,-1.7212,-1.7212,-1.7212,-1.7211,-1.7219,-1.7231,-1.7238,-1.7269,-1.7293,-1.7292,-1.7322,-1.7316,-1.7311,-1.7325,-1.7335,-1.7335,-1.7334,-1.733,-1.733,-1.7331,-1.7331,-1.7331,-1.7331,-1.7274,-1.7281,-1.7306,-1.7325,-1.7338,-1.7354,-1.7362,-1.7374,-1.7387,-1.738,-1.738,-1.7368,-1.7293,-1.7275,-1.7334,-1.7334,-1.7333,-1.7333,-1.7333,-1.736,-1.7339,-1.7379,-1.7393,-1.7414,-1.7438,-1.743,-1.7456,-1.7466,-1.7481,-1.7465,-1.7411,-1.7404,-1.7398,-1.7382,-1.7466,-1.7466,-1.7466,-1.7466,-1.7407,-1.7403,-1.7443,-1.7464,-1.7484,-1.7482,-1.7527,-1.7533,-1.7536,-1.7541,-1.7528,-1.7507,-1.7501,-1.7498,-1.7489,-1.7475,-1.758,-1.758,-1.758,-1.746,-1.7458,-1.7497,-1.75,-1.7516,-1.753,-1.7572,-1.7597,-1.7596,-1.7585,-1.7545,-1.7541,-1.7507,-1.7496,-1.7485,-1.7472,-1.7445,0,0]},{"header":{"parameterUnit":"m.s-1","parameterCategory":1,"la1":30.2992,"la2":30.254,"lo1":-89.0895,"lo2":-89.0443,"dy":0.0025,"dx":0.0025,"nx":19,"ny":19,"refTime":"2026-05-24T03:00:00:Z","depth":0,"parameterNumber":3,"parameterNumberName":"V-component_of_WINDS"},"data":[0,0,0,-0.2813,-0.2814,-0.2873,-0.2874,-0.2949,-0.295,0,0,0,0,0,0,0,0,0,0,0,-0.2795,-0.2796,-0.2813,-0.2814,-0.2873,-0.2874,-0.2949,-0.295,0,0,0,0,0,0,0,0,0,0,0,-0.2795,-0.2796,-0.2796,-0.2814,-0.2873,-0.2874,-0.2949,-0.2904,0,0,0,0,0,0,0,0,0,0,-0.2846,-0.2831,-0.2795,-0.2796,-0.2815,-0.2873,-0.2874,-0.2902,-0.2907,-0.2922,0,-0.2936,0,-0.2944,-0.2955,-0.2955,0,0,0,-0.2814,-0.2827,-0.2842,-0.2796,-0.2815,-0.2873,-0.2847,-0.2905,-0.291,-0.2928,-0.2937,-0.294,-0.2945,-0.2955,-0.2956,-0.3044,-0.3045,0,0,-0.2811,-0.2806,-0.2838,-0.2846,-0.2837,-0.2845,-0.2848,-0.2908,-0.2917,-0.2937,-0.2942,-0.2947,-0.2956,-0.2956,-0.3044,-0.3044,0,0,0,-0.2801,-0.2804,-0.2818,-0.2843,-0.2854,-0.2846,-0.2851,-0.2914,-0.2919,-0.2942,-0.2947,-0.2956,-0.2957,-0.3043,-0.3044,-0.306,0,0,0,-0.2799,-0.2798,-0.2817,-0.2815,-0.2853,-0.2885,-0.2856,-0.2915,-0.2922,-0.2947,-0.2956,-0.2958,-0.3043,-0.3044,-0.3059,-0.3069,0,0,0,-0.2791,-0.2797,-0.2806,-0.2814,-0.284,-0.2884,-0.2893,-0.2917,-0.2925,-0.2955,-0.2958,-0.3043,-0.3043,-0.3058,-0.3067,-0.309,0,0,0,-0.2781,-0.282,-0.2806,-0.2851,-0.2839,-0.2894,-0.2892,-0.2933,-0.2961,-0.2957,-0.3043,-0.3044,-0.3057,-0.3065,-0.3089,-0.3109,-0.3117,0,0,-0.2828,-0.2826,-0.2852,-0.2842,-0.2898,-0.2885,-0.2943,-0.2973,-0.298,-0.3022,-0.3024,-0.3059,-0.3067,-0.309,-0.3165,-0.3171,0,0,0,-0.2866,-0.2885,-0.2901,-0.2927,-0.295,-0.2971,-0.2992,-0.3002,-0.3038,-0.3001,-0.3074,-0.3079,-0.3093,-0.3103,-0.3108,-0.312,-0.3048,-0.3048,-0.3048,-0.2925,-0.2931,-0.2976,-0.2989,-0.3014,-0.3035,-0.3056,-0.3074,-0.3073,-0.309,-0.3103,-0.3148,-0.3159,-0.3163,-0.3176,-0.3115,-0.3115,-0.3115,-0.3115,-0.2993,-0.3021,-0.3019,-0.3061,-0.3067,-0.3103,-0.3124,-0.3122,-0.3155,-0.3139,-0.3152,-0.3133,-0.317,-0.3181,-0.3116,-0.3116,-0.3116,-0.3115,-0.3115,-0.3033,-0.3047,-0.3059,-0.3097,-0.3125,-0.3137,-0.3169,-0.3173,-0.3178,-0.319,-0.3203,-0.3203,-0.3203,-0.3196,-0.3196,-0.3196,-0.3197,-0.3197,-0.3197,-0.3069,-0.3082,-0.3109,-0.3136,-0.3152,-0.3175,-0.3195,-0.3212,-0.3231,-0.3232,-0.3232,-0.3229,-0.3173,-0.3158,-0.3199,-0.3199,-0.3198,-0.3198,-0.3198,-0.3135,-0.3121,-0.3162,-0.3178,-0.321,-0.3237,-0.3242,-0.3275,-0.3289,-0.3304,-0.3298,-0.3256,-0.3254,-0.325,-0.3238,-0.3297,-0.3297,-0.3297,-0.3297,-0.3168,-0.3168,-0.321,-0.3236,-0.3262,-0.3271,-0.3316,-0.3331,-0.3345,-0.3354,-0.3346,-0.3331,-0.3326,-0.3327,-0.3321,-0.331,-0.3386,-0.3386,-0.3386,-0.3209,-0.3211,-0.3249,-0.3263,-0.3287,-0.3308,-0.335,-0.338,-0.3392,-0.339,-0.3361,-0.3357,-0.3332,-0.3324,-0.3321,-0.3312,-0.3292,0,0]}]]